{"data":{"norad_id":48009,"intl_designator":"2021-024AJ","name":"STARLINK-2153","alt_names":[],"object_type":"PAYLOAD","status":"ACTIVE","operator":null,"country":"US","launch_date":"2021-03-24","launch_site_code":"AFETR","launch_vehicle":null,"mission":null,"orbit_class":"UNKNOWN","rcs_meters":null,"size_class":null,"mass_kg":null,"dimensions":null,"purposes":["comms"],"wikipedia_slug":null,"has_3d_model":false,"image_url":null,"decayed_at":null,"tle_current":{"epoch":"2026-05-25T04:16:15.538368Z","epoch_age_seconds":73824,"freshness":"FRESH","line1":"1 48009U 21024AJ  26145.17795762  .00001632  00000+0  64341-4 0  9995","line2":"2 48009  53.1605 313.6590 0001127  76.4472 283.6654 15.31698929286611","mean_motion":15.31698929,"eccentricity":0.0001127,"inclination_deg":53.1605,"raan_deg":313.659,"arg_perigee_deg":76.4472,"mean_anomaly_deg":283.6654,"bstar":6.4341e-5,"rev_number":28661,"period_min":94.013253697326,"perigee_km":469.97131902561,"apogee_km":471.51505661995,"semimajor_km":6848.8801878228,"source":"CELESTRAK","updated_at":"2026-05-25T13:38:16.639457Z"}}}